Meteopurmerend
purmerend
Purmerend - Baaienwijk



My webcam  My webcam


waarschuwing voor Onweer Meer informatie blitzortung!


Regen radar Meer informatie rain snow radar


Bezoek onze andere website:

CandyAppleRed WebdesignWebdesign Purmerend Candy Apple Red

MeteopurmerendBlog

Template documentation
and downloads



Onweer van: 19-06-2019 16:00 tot: 23:00 waarschuwing voor: Onweer niveau: Geel info button
Enkele onweersbuien, mogelijk met hagel en windstoten tot ca. 75 km/uur.Verkeer en buitenactiviteiten kunnen hinder ondervinden.Mijd open water en open gebied, schuil niet onder bomen.Volg weerberichten en waarschuwingen.

15 daagse weersverwachting Besançon, Besancon (FR)

  • Overzicht
  • Per uur
  • 15 dagen
  • Extra
  • Vergelijk
  • Kaarten
  • Dagkaart
  • Meer »
  • Info
  • Statistieken
  • Directe link
    Temp 6h Neerslag Wind  
 05:41     21:35    Daglengte: 15:54 Vandaag
20:00
25°
 
3
 05:41     21:35    Daglengte: 15:54 Morgen
02:00
18°
3.0 mm
2
08:00
18°
3.1 mm
3
14:00
22°
4.8 mm
4
20:00
20°
7.8 mm
2
warningclass
 05:41     21:35    Daglengte: 15:54 Vrijdag 21 Jun
02:00
15°
1.2 mm
1
08:00
16°
 
2
14:00
22°
 
4
20:00
21°
 
4
 05:41     21:35    Daglengte: 15:54 Zaterdag 22 Jun
02:00
16°
 
3
08:00
16°
1.5 mm
3
14:00
21°
2.4 mm
3
Locatie info
Region: Bourgogne-Franche-Comté
Latitude: 47.2428°N
Longitude: 6.0254°E
300 masl
Postcode: 25000
Temp/Neerslag /Baro Onweer/Dauwpunt
    Temp Baro 1h Neerslag Dauwpunt Wind UV Bewolking  
 05:41     21:35    Daglengte: 15:54 Vandaag
19:00
26°
1009.9 hPa
11%
14.4°
3
Windvlaag: 1.5 m/s
56%
20:00
25°
1010.2 hPa   16.0°
3
Windvlaag: 1.1 m/s
63%
21:00
23°
1010.8 hPa
18%
17.8°
2
Windvlaag: 1.1 m/s
78%
22:00
21°
1011.8 hPa 0.2 mm
70%
18.0°
2
Windvlaag: -0.3 m/s
85% warningclass
23:00
20°
1012.6 hPa 0.4 mm
78%
17.4°
1
Windvlaag: -0.5 m/s
79% warningclass
 05:41     21:35    Daglengte: 15:54 Morgen
00:00
19°
1012.9 hPa 0.8 mm
82%
17.0°
2
Windvlaag: 0.1 m/s
80%
01:00
18°
1013.4 hPa 0.7 mm
82%
16.8°
2
Windvlaag: 1.7 m/s
77%
02:00
18°
1013.7 hPa 0.9 mm
39%
16.9°
2
Windvlaag: 2.3 m/s
77%
03:00
17°
1013.8 hPa 2.0 mm
82%
16.0°
1
Windvlaag: 1.8 m/s
59%
04:00
17°
1013.6 hPa
72%
15.5°
2
Windvlaag: 0.9 m/s
57%
05:00
17°
1013.3 hPa
77%
15.2°
2
Windvlaag: 1 m/s
52%
06:00
17°
1013.5 hPa
31%
15.0°
2
Windvlaag: 0.9 m/s
61%
07:00
17°
1013.9 hPa
27%
15.3°
2
Windvlaag: 0.8 m/s
43%
08:00
18°
1014.2 hPa 1.1 mm
78%
16.1°
3
Windvlaag: 0.8 m/s
60%
09:00
18°
1014.5 hPa 0.8 mm
81%
15.9°
3
Windvlaag: 0.4 m/s
62%
10:00
19°
1014.5 hPa 1.2 mm
82%
15.9°
3
Windvlaag: 0.1 m/s
61%
11:00
20°
1014.5 hPa 0.8 mm
80%
15.7°
3
Windvlaag: 0.9 m/s
61%
12:00
20°
1014.6 hPa 0.8 mm
80%
15.4°
3
Windvlaag: 1.5 m/s
57%
13:00
20°
1014.7 hPa 1.0 mm
77%
15.7°
3
Windvlaag: 1.9 m/s
41%
14:00
22°
1014.4 hPa
79%
15.9°
4
Windvlaag: 2.5 m/s
24%
15:00
22°
1014.1 hPa 0.9 mm
37%
15.9°
4
Windvlaag: 2.2 m/s
28% warningclass
16:00
22°
1013.8 hPa 1.4 mm
76%
16.3°
4
Windvlaag: 2.1 m/s
26%
17:00
22°
1013.7 hPa 1.1 mm
74%
15.8°
4
Windvlaag: -0.5 m/s
43%
18:00
22°
1013.9 hPa
33%
17.3°
3
Windvlaag: 1.5 m/s
50%
19:00
21°
1014.4 hPa 2.2 mm
75%
16.1°
2
Windvlaag: -0.2 m/s
36%
20:00
20°
1014.9 hPa 2.1 mm
74%
15.8°
2
Windvlaag: -2 m/s
50% warningclass
21:00
19°
1015.4 hPa 1.2 mm
68%
16.1°
2
Windvlaag: -2 m/s
64% warningclass
22:00
18°
1016.1 hPa
37%
16.2°
1
Windvlaag: -0.7 m/s
68%
23:00
17°
1016.5 hPa
31%
15.8°
2
Windvlaag: 0.3 m/s
56%
 05:41     21:35    Daglengte: 15:54 Vrijdag 21 Jun
00:00
17°
1016.8 hPa
22%
15.4°
2
Windvlaag: 0 m/s
53%
01:00
16°
1016.7 hPa
14%
15.3°
1
Windvlaag: -0.5 m/s
60%
02:00
15°
1016.8 hPa
14%
15.0°
1
Windvlaag: -0.4 m/s
53%
03:00
15°
1016.9 hPa
14%
14.6°
1
Windvlaag: -0.2 m/s
66%
04:00
15°
1016.9 hPa
14%
14.4°
1
Windvlaag: -1 m/s
82%
05:00
15°
1016.8 hPa
15%
14.5°
1
Windvlaag: -0.7 m/s
81%
06:00
15°
1017.1 hPa
22%
14.3°
1
Windvlaag: -0.8 m/s
49%
07:00
15°
1017.5 hPa
16%
14.6°
2
Windvlaag: -0.3 m/s
48%
08:00
16°
1017.9 hPa
15%
14.7°
2
Windvlaag: -0.9 m/s
60%
09:00
17°
1018.0 hPa
14%
14.9°
2
Windvlaag: -1.2 m/s
40%
10:00
18°
1018.0 hPa
14%
15.2°
3
Windvlaag: -1.4 m/s
35%
11:00
20°
1018.0 hPa
14%
16.3°
3
Windvlaag: -2.3 m/s
36%
12:00
21°
1017.7 hPa
14%
16.7°
3
Windvlaag: -2.4 m/s
27%
13:00
21°
1017.4 hPa
14%
16.7°
4
Windvlaag: -2.3 m/s
39%
14:00
22°
1017.0 hPa
14%
16.6°
4
Windvlaag: -2.3 m/s
38%
15:00
22°
1016.7 hPa
14%
15.8°
4
Windvlaag: -2.2 m/s
30%
16:00
22°
1016.4 hPa
14%
15.6°
4
Windvlaag: -2.2 m/s
65%
17:00
23°
1016.6 hPa
21%
15.6°
4
Windvlaag: -2 m/s
32%
18:00
23°
1016.3 hPa
21%
15.2°
4
Windvlaag: -2 m/s
74%
19:00
22°
1016.5 hPa
21%
15.0°
4
Windvlaag: -1.8 m/s
77%
20:00
21°
1016.9 hPa
21%
14.6°
4
Windvlaag: -1.7 m/s
89%
21:00
20°
1017.1 hPa
21%
14.9°
3
Windvlaag: -1.3 m/s
97%
22:00
19°
1017.2 hPa
22%
14.5°
3
Windvlaag: -1 m/s
80%
23:00
18°
1017.3 hPa
21%
14.1°
4
Windvlaag: -0.8 m/s
92%
 05:41     21:35    Daglengte: 15:54 Zaterdag 22 Jun
00:00
17°
1017.3 hPa
21%
13.1°
4
Windvlaag: -0.8 m/s
87%
01:00
17°
1017.2 hPa
21%
12.1°
3
Windvlaag: -0.9 m/s
42%
02:00
16°
1017.0 hPa
21%
11.3°
3
Windvlaag: -0.8 m/s
70%
03:00
16°
1016.8 hPa
26%
10.8°
3
Windvlaag: -0.9 m/s
71%
04:00
15°
1016.6 hPa
30%
10.4°
3
Windvlaag: -0.8 m/s
83%
05:00
15°
1016.3 hPa
27%
10.1°
3
Windvlaag: -1.2 m/s
80%
06:00
15°
1016.4 hPa
22%
10.0°
3
Windvlaag: -1.9 m/s
92%
07:00
15°
1016.6 hPa
82%
10.4°
3
Windvlaag: -2 m/s
99%
08:00
16°
1016.8 hPa 1.5 mm
94%
11.6°
3
Windvlaag: -1.7 m/s
96%
09:00
16°
1016.9 hPa 2.4 mm
43%
12.3°
3
Windvlaag: -3.7 m/s
97%
10:00
17°
1016.8 hPa
34%
13.0°
3
Windvlaag: -3.4 m/s
69%
11:00
18°
1016.7 hPa
31%
13.9°
2
Windvlaag: -2.6 m/s
57%
12:00
19°
1016.7 hPa
22%
14.9°
2
Windvlaag: -1.5 m/s
57%
13:00
21°
1016.7 hPa
25%
15.9°
3
Windvlaag: -1.4 m/s
70%
14:00
21°
1016.5 hPa
37%
16.7°
3
Windvlaag: -0.6 m/s
62%
15:00
22°
1016.5 hPa
92%
17.3°
3
Windvlaag: 3.8 m/s
56%
16:00
22°
1016.4 hPa
93%
17.6°
3
Windvlaag: 4.1 m/s
52%
17:00
21°
1016.3 hPa
41%
17.8°
2
Windvlaag: 3.6 m/s
76%
18:00
22°
1016.3 hPa
94%
18.2°
2
Windvlaag: 2.9 m/s
76%
Temp/Neerslag /Baro Onweer/Dauwpunt
    Temp Baro Neerslag Dauwpunt Wind Bewolking  
 05:41     21:35    Daglengte: 15:54 Vandaag
20:00
25°
1010.2 hPa   16.0°
3
63%
23:00
20°
1012.6 hPa 0.6 mm 17.4°
1
79% warningclass
 05:41     21:35    Daglengte: 15:54 Morgen
02:00
18°
1013.7 hPa 2.4 mm 16.9°
2
77%
05:00
17°
1013.3 hPa 2.0 mm 15.2°
2
52%
08:00
18°
1014.2 hPa 1.1 mm 16.1°
3
60%
11:00
20°
1014.5 hPa 2.9 mm 15.7°
3
61%
14:00
22°
1014.4 hPa 1.8 mm 15.9°
4
24%
17:00
22°
1013.7 hPa 3.5 mm 15.8°
4
43%
20:00
20°
1014.9 hPa 4.3 mm 15.8°
2
50% warningclass
23:00
17°
1016.5 hPa 1.2 mm 15.8°
2
56%
 05:41     21:35    Daglengte: 15:54 Vrijdag 21 Jun
02:00
15°
1016.8 hPa   15.0°
1
53%
05:00
15°
1016.8 hPa   14.5°
1
81%
08:00
16°
1017.9 hPa   14.7°
2
60%
11:00
20°
1018.0 hPa   16.3°
3
36%
14:00
22°
1017.0 hPa   16.6°
4
38%
17:00
23°
1016.6 hPa   15.6°
4
32%
20:00
21°
1016.9 hPa   14.6°
4
89%
23:00
18°
1017.3 hPa   14.1°
4
92%
 05:41     21:35    Daglengte: 15:54 Zaterdag 22 Jun
02:00
16°
1017.0 hPa   11.3°
3
70%
05:00
15°
1016.3 hPa   10.1°
3
80%
08:00
16°
1016.8 hPa 1.5 mm 11.6°
3
96%
11:00
18°
1016.7 hPa 2.4 mm 13.9°
2
57%
14:00
21°
1016.5 hPa   16.7°
3
62%
17:00
21°
1016.3 hPa   17.8°
2
76%
20:00
21°
1016.6 hPa   18.2°
2
49%
23:00
17°
1017.4 hPa 13.5 mm 15.5°
1
62%
 05:42     21:36    Daglengte: 15:54 Zondag 23 Jun
02:00
16°
1017.6 hPa 13.5 mm 14.8°
2
49%
05:00
16°
1017.7 hPa 13.5 mm 15.2°
2
25%
08:00
18°
1017.8 hPa 13.5 mm 16.0°
3
1%
11:00
22°
1017.3 hPa 13.5 mm 16.4°
4
23%
14:00
25°
1016.8 hPa 13.5 mm 15.7°
5
44%
17:00
25°
1016.6 hPa 13.5 mm 16.5°
4
57%
20:00
24°
1016.4 hPa 13.5 mm 17.2°
4
70%
23:00
21°
1017.0 hPa 13.5 mm 16.3°
3
65%
 05:42     21:36    Daglengte: 15:54 Maandag 24 Jun
02:00
18°
1017.4 hPa 13.5 mm 15.0°
2
60%
05:00
19°
1017.4 hPa 13.5 mm 15.7°
2
30%
08:00
20°
1017.5 hPa 13.5 mm 16.7°
1
0%
11:00
25°
1017.5 hPa 13.5 mm 18.1°
1
31%
14:00
29°
1017.4 hPa 13.5 mm 18.6°
1
62%
17:00
28°
1017.2 hPa 13.5 mm 19.8°
2
59%
20:00
27°
1017.0 hPa 13.5 mm 20.7°
3
56%
23:00
23°
1017.7 hPa 13.5 mm 17.5°
3
47%
 05:42     21:36    Daglengte: 15:54 Dinsdag 25 Jun
02:00
20°
1018.2 hPa 13.5 mm 14.3°
2
37%
05:00
21°
1018.7 hPa 13.5 mm 15.6°
2
19%
08:00
22°
1019.2 hPa 13.5 mm 17.0°
2
0%
11:00
27°
1018.9 hPa 13.5 mm 18.9°
2
38%
14:00
32°
1018.5 hPa 13.5 mm 19.8°
2
75%
17:00
30°
1018.1 hPa 13.5 mm 20.9°
2
56%
20:00
29°
1017.7 hPa 13.5 mm 21.8°
3
36%
23:00
25°
1018.3 hPa 13.5 mm 18.8°
3
24%
 05:43     21:36    Daglengte: 15:53 Woensdag 26 Jun
02:00
22°
1018.8 hPa 13.5 mm 15.8°
2
12%
05:00
22°
1019.1 hPa 13.5 mm 17.0°
2
15%
08:00
23°
1019.4 hPa 13.5 mm 18.7°
2
17%
11:00
28°
1019.0 hPa 13.5 mm 20.1°
1
51%
14:00
33°
1018.6 hPa 13.5 mm 20.1°
0
84%
17:00
33°
1017.8 hPa   22.4°
1
42%
20:00
32°
1017.1 hPa 27.0 mm 24.5°
1
0%
 05:43     21:36    Daglengte: 15:53 Donderdag 27 Jun
02:00
23°
1017.9 hPa 27.0 mm 19.1°
2
0%
08:00
26°
1018.4 hPa 27.0 mm 19.6°
2
0%
14:00
34°
1017.3 hPa 27.0 mm 19.4°
3
0%
20:00
32°
1015.7 hPa 27.0 mm 22.8°
1
0%
 05:44     21:36    Daglengte: 15:52 Vrijdag 28 Jun
02:00
24°
1016.5 hPa 29.1 mm 20.2°
3
0%
08:00
25°
1016.5 hPa 37.9 mm 20.0°
1
0%
14:00
33°
1014.8 hPa 42.7 mm 20.1°
1
0%
20:00
32°
1012.6 hPa 43.3 mm 24.0°
1
1%
 05:44     21:36    Daglengte: 15:52 Zaterdag 29 Jun
02:00
25°
1013.1 hPa 43.6 mm 17.3°
3
0%
08:00
19°
1016.0 hPa 43.6 mm 15.5°
1
1%
14:00
28°
1014.8 hPa 0.2 mm 19.1°
1
21%
20:00
27°
1014.2 hPa 0.4 mm 21.5°
1
18%
 05:45     21:35    Daglengte: 15:50 Zondag 30 Jun
02:00
19°
1015.3 hPa 0.2 mm 16.1°
1
14%
08:00
20°
1015.5 hPa 0.5 mm 17.6°
1
20%
14:00
27°
1014.7 hPa 0.7 mm 18.6°
1
24%
20:00
25°
1014.6 hPa 1.7 mm 20.5°
2
27%
 05:45     21:35    Daglengte: 15:50 Maandag 01 Jul
02:00
18°
1015.9 hPa 1.6 mm 15.5°
0
32%
08:00
18°
1016.4 hPa 1.0 mm 16.3°
1
32%
14:00
24°
1015.5 hPa 0.5 mm 17.3°
3
32%
20:00
23°
1015.6 hPa 2.4 mm 18.4°
2
32%
 05:46     21:35    Daglengte: 15:49 Dinsdag 02 Jul
02:00
16°
1016.7 hPa 1.1 mm 14.1°
1
27%
08:00
17°
1016.4 hPa 0.8 mm 15.1°
1
31%
14:00
23°
1015.2 hPa 1.0 mm 16.1°
2
36%
20:00
23°
1014.9 hPa 0.7 mm 17.8°
2
37%
 05:47     21:35    Daglengte: 15:48 Woensdag 03 Jul
02:00
15°
1015.7 hPa 0.7 mm 13.1°
0
26%
08:00
17°
1015.6 hPa 1.2 mm 14.9°
1
36%
14:00
23°
1014.7 hPa 1.8 mm 16.2°
2
39%
20:00
21°
1015.4 hPa 2.8 mm 17.5°
1
43%
 05:47     21:34    Daglengte: 15:47 Donderdag 04 Jul
02:00
15°
1016.8 hPa 1.1 mm 13.0°
0
26%
08:00
17°
1017.3 hPa 0.7 mm 14.6°
1
33%
14:00
23°
1016.6 hPa 0.6 mm 15.5°
2
37%
  CAPE Lifted Index Hail Supercell Tornado SRH 3km CL BTM PRES CL TOP PRES Swiss DWD icon SMHI TS
 05:41     21:35    Daglengte: 15:54 Vandaag
19:00 1173 J/kg -4.1 K 0 % 0 % 0 % 0 m²/s² 0 0 -3.14 3
20:00 1572 J/kg -4.8 K 0 % 0 % 0 % 0 m²/s² 0 0 -3.36 3
21:00 1703 J/kg -5.9 K 0 % 0 % 0 % 0 m²/s² 0 0 -4.1 3
22:00 846 J/kg -5.0 K 0 % 0 % 0 % 0 m²/s² 0 0 -3.95 3
23:00 533 J/kg -3.2 K 0 % 0 % 0 % 0 m²/s² 0 0 -2.24 3
 05:41     21:35    Daglengte: 15:54 Morgen
00:00 344 J/kg -2.4 K 0 % 0 % 0 % 0 m²/s² 0 0 -1.14 80
01:00 182 J/kg -3.1 K 0 % 0 % 0 % 0 m²/s² 0 0 -1.99 80
02:00 322 J/kg -2.3 K 0 % 0 % 0 % 0 m²/s² 0 0 -1.73 3
03:00 0 J/kg 1.2 K 0 % 0 % 0 % 0 m²/s² 0 0 2.16 80
04:00 0 J/kg -0.6 K 0 % 0 % 0 % 0 m²/s² 0 0 -0.18 3
05:00 0 J/kg -0.9 K 0 % 0 % 0 % 0 m²/s² 0 0 0.3 3
06:00 0 J/kg -1.1 K 0 % 0 % 0 % 0 m²/s² 0 0 0.85 2
07:00 0 J/kg -0.9 K 0 % 0 % 0 % 0 m²/s² 0 0 1.38 3
08:00 375 J/kg -1.6 K 0 % 0 % 0 % 0 m²/s² 0 0 0.23 3
09:00 619 J/kg -2.4 K 0 % 0 % 0 % 0 m²/s² 0 0 -0.63 80
10:00 708 J/kg -2.8 K 0 % 0 % 0 % 0 m²/s² 0 0 -1.09 80
11:00 688 J/kg -2.9 K 0 % 0 % 0 % 0 m²/s² 0 0 -1.25 3
12:00 630 J/kg -2.9 K 0 % 0 % 0 % 0 m²/s² 0 0 -1.13 2
13:00 643 J/kg -3.2 K 0 % 0 % 0 % 0 m²/s² 0 0 -1.61 2
14:00 660 J/kg -3.3 K 0 % 0 % 0 % 0 m²/s² 0 0 -1.83 2
15:00 619 J/kg -3.3 K 0 % 0 % 0 % 0 m²/s² 0 0 -2.1 2
16:00 579 J/kg -3.2 K 0 % 0 % 0 % 0 m²/s² 0 0 -1.73 3
17:00 635 J/kg -3.3 K 0 % 0 % 0 % 0 m²/s² 0 0 -1.29 2
18:00 684 J/kg -3.5 K 0 % 0 % 0 % 0 m²/s² 0 0 -1.61 2
19:00 801 J/kg -3.7 K 0 % 0 % 0 % 0 m²/s² 0 0 -1.81 2
20:00 886 J/kg -4.0 K 0 % 0 % 0 % 0 m²/s² 0 0 -2.35 2
21:00 972 J/kg -4.0 K 0 % 0 % 0 % 0 m²/s² 0 0 -2.29 80
22:00 721 J/kg -3.2 K 0 % 0 % 0 % 0 m²/s² 0 0 -1.19 3
23:00 522 J/kg -2.6 K 0 % 0 % 0 % 0 m²/s² 0 0 -0.53 3
 05:41     21:35    Daglengte: 15:54 Vrijdag 21 Jun
00:00 437 J/kg -2.3 K 0 % 0 % 0 % 0 m²/s² 0 0 -0.35 3
01:00 296 J/kg -1.9 K 0 % 0 % 0 % 0 m²/s² 0 0 0.17 3
02:00 256 J/kg -1.6 K 0 % 0 % 0 % 0 m²/s² 0 0 0.2 3
03:00 136 J/kg -1.3 K 0 % 0 % 0 % 0 m²/s² 0 0 0.71 3
04:00 8 J/kg -1.0 K 0 % 0 % 0 % 0 m²/s² 0 0 1.34 3
05:00 42 J/kg -1.4 K 0 % 0 % 0 % 0 m²/s² 0 0 0.61 3
06:00 5 J/kg -0.9 K 0 % 0 % 0 % 0 m²/s² 0 0 1.23 3
07:00 4 J/kg -0.4 K 0 % 0 % 0 % 0 m²/s² 0 0 1.88 2
08:00 11 J/kg 0.1 K 0 % 0 % 0 % 0 m²/s² 0 0 2.44 3
09:00 46 J/kg 0.2 K 0 % 0 % 0 % 0 m²/s² 0 0 2.69 3
10:00 551 J/kg -1.7 K 0 % 0 % 0 % 0 m²/s² 0 0 0.79 2
11:00 818 J/kg -2.4 K 0 % 0 % 0 % 0 m²/s² 0 0 0.39 2
12:00 839 J/kg -2.1 K 0 % 0 % 0 % 0 m²/s² 0 0 0.87 2
13:00 918 J/kg -2.3 K 0 % 0 % 0 % 0 m²/s² 0 0 0.91 1
14:00 789 J/kg -1.8 K 0 % 0 % 0 % 0 m²/s² 0 0 1.62 2
15:00 630 J/kg -1.4 K 0 % 0 % 0 % 0 m²/s² 0 0 2.11 2
16:00 655 J/kg -1.9 K 0 % 0 % 0 % 0 m²/s² 0 0 1.61 3
17:00 610 J/kg -2.1 K 0 % 0 % 0 % 0 m²/s² 0 0 0.9 3
18:00 667 J/kg -2.4 K 0 % 0 % 0 % 0 m²/s² 0 0 0.06 3
19:00 655 J/kg -2.2 K 0 % 0 % 0 % 0 m²/s² 0 0 -0.49 3
20:00 535 J/kg -2.8 K 0 % 0 % 0 % 0 m²/s² 0 0 -1.75 3
21:00 193 J/kg -1.7 K 0 % 0 % 0 % 0 m²/s² 0 0 -1.07 3
22:00 15 J/kg -2.2 K 0 % 0 % 0 % 0 m²/s² 0 0 -1.75 3
23:00 0 J/kg -1.7 K 0 % 0 % 0 % 0 m²/s² 0 0 -1.16 3
 05:41     21:35    Daglengte: 15:54 Zaterdag 22 Jun
00:00 0 J/kg -2.4 K 0 % 0 % 0 % 0 m²/s² 0 0 -1.44 3
01:00 0 J/kg -2.1 K 0 % 0 % 0 % 0 m²/s² 0 0 -1.2 1
02:00 0 J/kg -2.1 K 0 % 0 % 0 % 0 m²/s² 0 0 -1.23 2
03:00 0 J/kg -2.1 K 0 % 0 % 0 % 0 m²/s² 0 0 -1.74 3
04:00 0 J/kg -1.5 K 0 % 0 % 0 % 0 m²/s² 0 0 -0.69 3
05:00 0 J/kg -1.0 K 0 % 0 % 0 % 0 m²/s² 0 0 -0.46 3
06:00 0 J/kg -0.5 K 0 % 0 % 0 % 0 m²/s² 0 0 -0.23 3
07:00 0 J/kg -0.7 K 0 % 0 % 0 % 0 m²/s² 0 0 -0.58 3
08:00 0 J/kg -0.7 K 0 % 0 % 0 % 0 m²/s² 0 0 -0.28 3
09:00 77 J/kg -0.7 K 0 % 0 % 0 % 0 m²/s² 0 0 0.2 3
10:00 221 J/kg -1.4 K 0 % 0 % 0 % 0 m²/s² 0 0 -0.35 3
11:00 406 J/kg -1.9 K 0 % 0 % 0 % 0 m²/s² 0 0 -0.79 3
12:00 643 J/kg -2.1 K 0 % 0 % 0 % 0 m²/s² 0 0 -0.96 3
13:00 863 J/kg -2.2 K 0 % 0 % 0 % 0 m²/s² 0 0 -0.88 3
14:00 1024 J/kg -2.6 K 0 % 0 % 0 % 0 m²/s² 0 0 -1.16 3
15:00 978 J/kg -2.4 K 0 % 0 % 0 % 0 m²/s² 0 0 -1.14 3
16:00 1139 J/kg -2.9 K 0 % 0 % 0 % 0 m²/s² 0 0 -1.4 2
17:00 1245 J/kg -3.2 K 0 % 0 % 0 % 0 m²/s² 0 0 -1.88 1
18:00 1052 J/kg -2.8 K 0 % 0 % 0 % 0 m²/s² 0 0 -1.48 3
Temp Baro Wind Neerslag
  EWN Forecast EWN WRFDA DWD ICON FMI HIRLAM MET Norway GFS
 05:41     21:35    Daglengte: 15:54 Vandaag
20:00 24.7° 1010.2 hPa 2.6 m/s 0.0 mm 25.0° 1009.2 hPa 1.8 m/s 0.0 mm 24.3° 1009.9 hPa 2.7 m/s -2.0 mm 26.5° 1010.2 hPa 3.2 m/s 0.0 mm 23.5° 1010.4 hPa 2.3 m/s 0.0 mm 20.4° 1011.5 hPa 2.8 m/s
23:00 19.7° 1012.6 hPa 1.4 m/s 0.6 mm 18.7° 1011.5 hPa 2.7 m/s 2.0 mm 19.4° 1013.2 hPa 1.7 m/s 0.3 mm 21.2° 1012.0 hPa 1.2 m/s 0.0 mm 19.5° 1012.9 hPa 0.5 m/s 0.6 mm 16.6° 1013.9 hPa 1.9 m/s
 05:41     21:35    Daglengte: 15:54 Morgen
02:00 17.9° 1013.7 hPa 1.8 m/s 2.4 mm 17.2° 1013.6 hPa 6.2 m/s 4.5 mm 17.8° 1013.7 hPa 1.3 m/s 1.0 mm 19.6° 1013.4 hPa 1.8 m/s 0.0 mm 16.9° 1014.0 hPa 0.7 m/s 2.6 mm 15.3° 1014.7 hPa 1.7 m/s
05:00 16.5° 1013.3 hPa 2.0 m/s 2.0 mm 14.8° 1012.3 hPa 2.1 m/s 12.3 mm 16.5° 1013.8 hPa 2.6 m/s 0.9 mm 17.0° 1014.0 hPa 1.2 m/s 0.0 mm 16.1° 1013.2 hPa 2.3 m/s 2.6 mm 14.3° 1014.3 hPa 1.3 m/s
08:00 17.6° 1014.2 hPa 2.7 m/s 1.1 mm 17.2° 1013.6 hPa 3.0 m/s 12.5 mm 17.2° 1014.7 hPa 3.5 m/s 0.3 mm 18.0° 1014.1 hPa 0.5 m/s 0.0 mm 17.6° 1014.3 hPa 3.3 m/s 0.0 mm 16.2° 1015.4 hPa 1.3 m/s
11:00 19.6° 1014.5 hPa 3.1 m/s 2.9 mm 20.5° 1013.8 hPa 3.9 m/s 12.5 mm 18.8° 1015.6 hPa 4.2 m/s 1.6 mm 21.1° 1013.9 hPa 1.7 m/s 0.0 mm 19.0° 1014.6 hPa 3.2 m/s 0.4 mm 16.8° 1015.8 hPa 1.3 m/s
14:00 21.6° 1014.4 hPa 3.6 m/s 1.8 mm 22.5° 1013.5 hPa 4.4 m/s 12.5 mm 21.0° 1015.8 hPa 4.3 m/s 0.2 mm 23.5° 1013.5 hPa 4.4 m/s 0.0 mm 21.6° 1014.3 hPa 3.0 m/s 0.4 mm 21.5° 1015.1 hPa 3.9 m/s
17:00 22.3° 1013.7 hPa 3.8 m/s 3.5 mm 23.2° 1012.7 hPa 3.9 m/s 12.5 mm 22.0° 1014.8 hPa 3.8 m/s 0.1 mm 22.5° 1013.5 hPa 4.2 m/s 0.0 mm 22.8° 1013.5 hPa 4.3 m/s 0.5 mm 21.5° 1014.5 hPa 3.5 m/s
20:00 19.9° 1014.9 hPa 2.1 m/s 4.3 mm 21.6° 1013.5 hPa 2.2 m/s 13.4 mm 20.3° 1015.8 hPa 2.4 m/s 0.2 mm 21.4° 1014.5 hPa 2.6 m/s 0.0 mm 19.3° 1014.9 hPa 0.2 m/s 5.3 mm 19.2° 1015.7 hPa 1.7 m/s
23:00 17.3° 1016.5 hPa 1.5 m/s 1.2 mm 15.8° 1014.4 hPa 1.9 m/s 14.3 mm 17.7° 1016.6 hPa 1.6 m/s 0.3 mm 17.9° 1016.8 hPa 1.6 m/s 0.0 mm 17.2° 1016.4 hPa 1.4 m/s 0.0 mm 14.9° 1017.2 hPa 1.0 m/s
 05:41     21:35    Daglengte: 15:54 Vrijdag 21 Jun
02:00 15.4° 1016.8 hPa 1.2 m/s 0.0 mm 14.3° 1015.7 hPa 1.6 m/s 14.4 mm 15.9° 1017.5 hPa 0.8 m/s 0.0 mm 15.3° 1016.8 hPa 0.8 m/s 0.0 mm 15.2° 1016.6 hPa 1.8 m/s 0.0 mm 13.3° 1017.1 hPa 0.4 m/s
05:00 14.9° 1016.8 hPa 1.5 m/s 0.0 mm 14.3° 1015.1 hPa 1.3 m/s 14.4 mm 15.5° 1017.7 hPa 1.1 m/s 0.0 mm 14.8° 1016.8 hPa 1.1 m/s 0.0 mm 14.5° 1016.8 hPa 1.7 m/s 0.0 mm 12.6° 1017.3 hPa 0.3 m/s
08:00 16.0° 1017.9 hPa 1.9 m/s 0.0 mm 14.9° 1015.9 hPa 1.7 m/s 14.4 mm 16.1° 1018.6 hPa 1.7 m/s 0.0 mm 15.8° 1016.9 hPa 2.3 m/s 0.0 mm 16.2° 1018.1 hPa 2.1 m/s 0.0 mm 15.2° 1018.2 hPa 0.8 m/s
11:00 19.6° 1018.0 hPa 3.1 m/s 0.0 mm 20.2° 1016.0 hPa 2.9 m/s 14.4 mm 19.9° 1018.3 hPa 3.0 m/s 0.0 mm 20.2° 1016.0 hPa 3.8 m/s 0.0 mm 19.2° 1018.4 hPa 2.9 m/s 0.0 mm 19.5° 1018.4 hPa 2.4 m/s
14:00 21.9° 1017.0 hPa 3.8 m/s 0.0 mm 22.6° 1015.1 hPa 4.5 m/s 14.4 mm 22.6° 1017.5 hPa 3.8 m/s 0.0 mm 20.4° 1015.1 hPa 4.5 m/s 0.0 mm 22.0° 1017.3 hPa 3.7 m/s 0.4 mm 22.6° 1017.3 hPa 3.6 m/s
17:00 22.8° 1016.6 hPa 3.7 m/s 0.0 mm 23.2° 1014.1 hPa 5.7 m/s 14.4 mm 23.2° 1016.9 hPa 3.7 m/s 0.0 mm 21.3° 1017.1 hPa 3.5 m/s 1.6 mm 22.6° 1016.5 hPa 4.0 m/s
20:00 21.0° 1016.9 hPa 4.0 m/s 0.0 mm 21.5° 1013.5 hPa 5.2 m/s 14.4 mm 21.0° 1017.4 hPa 3.9 m/s 0.0 mm 20.2° 1017.4 hPa 4.0 m/s 0.0 mm 19.5° 1016.5 hPa 3.1 m/s
23:00 18.1° 1017.3 hPa 3.7 m/s 0.0 mm 18.2° 1013.8 hPa 4.8 m/s 14.4 mm 18.1° 1018.3 hPa 4.2 m/s 0.0 mm 17.5° 1017.7 hPa 3.2 m/s 0.0 mm 15.1° 1017.6 hPa 2.4 m/s
 05:41     21:35    Daglengte: 15:54 Zaterdag 22 Jun
02:00 16.0° 1017.0 hPa 3.2 m/s 0.0 mm 16.0° 1012.1 hPa 4.2 m/s 14.4 mm 15.3° 1018.2 hPa 2.1 m/s 0.0 mm 15.8° 1017.6 hPa 3.3 m/s 0.0 mm 13.8° 1017.1 hPa 2.1 m/s
05:00 15.0° 1016.3 hPa 3.3 m/s 0.0 mm 16.4° 1011.6 hPa 3.6 m/s 14.9 mm 14.6° 1017.8 hPa 1.3 m/s 0.0 mm 14.8° 1016.9 hPa 3.3 m/s 0.0 mm 13.9° 1016.1 hPa 2.3 m/s
08:00 15.6° 1016.8 hPa 3.2 m/s 1.5 mm 17.0° 1013.4 hPa 1.4 m/s 15.6 mm 14.8° 1018.8 hPa 1.1 m/s 0.1 mm 15.8° 1017.1 hPa 3.8 m/s 0.4 mm 14.1° 1017.1 hPa 2.6 m/s
11:00 18.3° 1016.7 hPa 2.1 m/s 2.4 mm 20.5° 1013.3 hPa 1.4 m/s 17.2 mm 18.8° 1018.1 hPa 1.9 m/s 0.0 mm 18.1° 1017.0 hPa 3.1 m/s 16.4° 1017.0 hPa 2.6 m/s
14:00 21.3° 1016.5 hPa 2.8 m/s 0.0 mm 22.7° 1012.9 hPa 4.3 m/s 17.2 mm 23.1° 1017.5 hPa 3.7 m/s 0.0 mm 20.5° 1016.8 hPa 2.5 m/s 19.9° 1016.9 hPa 2.3 m/s
17:00 21.4° 1016.3 hPa 2.3 m/s 0.0 mm 22.6° 1012.9 hPa 3.0 m/s 17.6 mm 24.2° 1016.4 hPa 2.5 m/s 0.0 mm 19.8° 1016.8 hPa 1.9 m/s 21.4° 1016.1 hPa 2.0 m/s
20:00 20.7° 1016.6 hPa 2.0 m/s 0.0 mm 22.2° 1013.2 hPa 2.7 m/s 18.7 mm 22.5° 1017.1 hPa 2.5 m/s 0.1 mm 19.1° 1016.9 hPa 1.4 m/s 20.0° 1016.6 hPa 1.2 m/s
23:00 16.7° 1017.4 hPa 1.5 m/s 13.5 mm 16.8° 1017.4 hPa 1.5 m/s 16.1° 1017.9 hPa 0.6 m/s 13.5 mm
 05:42     21:36    Daglengte: 15:54 Zondag 23 Jun
02:00 15.5° 1017.6 hPa 1.6 m/s 13.5 mm 15.6° 1017.6 hPa 1.6 m/s 14.9° 1017.8 hPa 1.1 m/s 13.5 mm
05:00 16.4° 1017.7 hPa 2.4 m/s 13.5 mm 16.7° 1017.7 hPa 2.5 m/s 12.9° 1017.6 hPa 1.3 m/s 13.5 mm
08:00 17.6° 1017.8 hPa 3.3 m/s 13.5 mm 17.8° 1017.8 hPa 3.4 m/s 15.6° 1017.6 hPa 2.0 m/s 13.5 mm
11:00 21.6° 1017.3 hPa 3.9 m/s 13.5 mm 21.5° 1017.3 hPa 4.0 m/s 23.2° 1017.4 hPa 1.9 m/s 13.5 mm
14:00 25.2° 1016.8 hPa 4.5 m/s 13.5 mm 25.1° 1016.8 hPa 4.7 m/s 26.3° 1016.8 hPa 2.7 m/s 13.5 mm
17:00 24.7° 1016.6 hPa 4.4 m/s 13.5 mm 24.5° 1016.6 hPa 4.6 m/s 26.9° 1016.3 hPa 2.7 m/s 13.5 mm
20:00 23.8° 1016.4 hPa 4.2 m/s 13.5 mm 23.8° 1016.4 hPa 4.4 m/s 24.0° 1016.9 hPa 2.3 m/s 13.5 mm
23:00 20.6° 1017.0 hPa 3.3 m/s 13.5 mm 20.7° 1016.8 hPa 3.5 m/s 19.4° 1018.5 hPa 1.8 m/s 13.5 mm
 05:42     21:36    Daglengte: 15:54 Maandag 24 Jun
02:00 17.5° 1017.4 hPa 2.4 m/s 13.5 mm 17.6° 1017.3 hPa 2.5 m/s 17.0° 1018.8 hPa 1.7 m/s 13.5 mm
05:00 18.6° 1017.4 hPa 1.9 m/s 13.5 mm 18.8° 1017.3 hPa 2.0 m/s 16.3° 1018.5 hPa 1.2 m/s 13.5 mm
08:00 20.0° 1017.5 hPa 1.5 m/s 13.5 mm 20.0° 1017.4 hPa 1.5 m/s 20.1° 1018.8 hPa 1.2 m/s 13.5 mm
11:00 24.6° 1017.5 hPa 1.3 m/s 13.5 mm 24.4° 1017.3 hPa 1.4 m/s 27.2° 1018.7 hPa 1.2 m/s 13.5 mm
14:00 28.8° 1017.4 hPa 1.3 m/s 13.5 mm 28.7° 1017.3 hPa 1.2 m/s 30.1° 1018.1 hPa 1.9 m/s 13.5 mm
17:00 28.0° 1017.2 hPa 2.0 m/s 13.5 mm 27.8° 1017.1 hPa 2.0 m/s 30.4° 1017.6 hPa 2.8 m/s 13.5 mm
20:00 26.8° 1017.0 hPa 2.7 m/s 13.5 mm 26.8° 1017.0 hPa 2.7 m/s 26.7° 1017.5 hPa 2.9 m/s 13.5 mm
23:00 23.5° 1017.7 hPa 2.6 m/s 13.5 mm 23.6° 1017.5 hPa 2.6 m/s 21.8° 1019.1 hPa 2.2 m/s 13.5 mm
 05:42     21:36    Daglengte: 15:54 Dinsdag 25 Jun
02:00 20.4° 1018.2 hPa 2.4 m/s 13.5 mm 20.5° 1018.1 hPa 2.5 m/s 19.7° 1019.1 hPa 1.7 m/s 13.5 mm
05:00 21.0° 1018.7 hPa 2.2 m/s 13.5 mm 21.2° 1018.7 hPa 2.4 m/s 18.2° 1018.7 hPa 0.9 m/s 13.5 mm
08:00 22.0° 1019.2 hPa 2.1 m/s 13.5 mm 22.0° 1019.2 hPa 2.2 m/s 22.0° 1019.1 hPa 0.8 m/s 13.5 mm
11:00 27.0° 1018.9 hPa 1.9 m/s 13.5 mm 26.9° 1018.9 hPa 2.0 m/s 27.7° 1019.0 hPa 1.2 m/s 13.5 mm
14:00 31.8° 1018.5 hPa 1.8 m/s 13.5 mm 31.9° 1018.5 hPa 1.8 m/s 30.8° 1018.8 hPa 1.8 m/s 13.5 mm
17:00 30.5° 1018.1 hPa 2.4 m/s 13.5 mm 30.4° 1018.0 hPa 2.5 m/s 31.5° 1018.5 hPa 2.3 m/s 13.5 mm
20:00 28.9° 1017.7 hPa 3.0 m/s 13.5 mm 28.9° 1017.6 hPa 3.1 m/s 28.4° 1018.6 hPa 1.5 m/s 13.5 mm
23:00 25.2° 1018.3 hPa 2.6 m/s 13.5 mm 25.4° 1018.2 hPa 2.7 m/s 23.3° 1020.1 hPa 1.3 m/s 13.5 mm
 05:43     21:36    Daglengte: 15:53 Woensdag 26 Jun
02:00 21.9° 1018.8 hPa 2.2 m/s 13.5 mm 21.9° 1018.7 hPa 2.3 m/s 21.9° 1019.8 hPa 1.4 m/s 13.5 mm
05:00 22.4° 1019.1 hPa 1.9 m/s 13.5 mm 22.7° 1019.0 hPa 2.0 m/s 19.6° 1019.5 hPa 1.2 m/s 13.5 mm
08:00 23.4° 1019.4 hPa 1.6 m/s 13.5 mm 23.5° 1019.4 hPa 1.7 m/s 22.6° 1019.5 hPa 0.3 m/s 13.5 mm
11:00 28.4° 1019.0 hPa 1.0 m/s 13.5 mm 28.4° 1019.0 hPa 0.9 m/s 28.6° 1019.0 hPa 1.0 m/s 13.5 mm
14:00 33.1° 1018.6 hPa 0.4 m/s 13.5 mm 33.2° 1018.6 hPa 0.2 m/s 31.9° 1018.0 hPa 2.0 m/s 13.5 mm
17:00 32.5° 1017.8 hPa 0.8 m/s 13.5 mm 32.5° 1017.9 hPa 0.7 m/s 32.3° 1016.9 hPa 2.4 m/s 13.5 mm
20:00 31.6° 1017.1 hPa 1.1 m/s 13.5 mm 31.9° 1017.1 hPa 1.1 m/s 28.3° 1017.0 hPa 1.7 m/s 13.5 mm
 05:43     21:36    Daglengte: 15:53 Donderdag 27 Jun
02:00 23.2° 1017.9 hPa 2.4 m/s 13.5 mm 23.4° 1017.9 hPa 2.5 m/s 21.3° 1017.5 hPa 1.4 m/s 13.5 mm
08:00 25.6° 1018.4 hPa 1.8 m/s 13.5 mm 25.8° 1018.4 hPa 1.9 m/s 23.2° 1017.8 hPa 0.5 m/s 13.5 mm
14:00 33.7° 1017.3 hPa 3.1 m/s 13.5 mm 34.0° 1017.4 hPa 3.1 m/s 30.3° 1016.2 hPa 3.0 m/s 13.5 mm
20:00 32.1° 1015.7 hPa 1.5 m/s 13.5 mm 32.4° 1015.7 hPa 1.5 m/s 28.4° 1015.6 hPa 1.3 m/s 13.5 mm
 05:44     21:36    Daglengte: 15:52 Vrijdag 28 Jun
02:00 23.8° 1016.5 hPa 2.7 m/s 15.6 mm 23.9° 1016.4 hPa 2.9 m/s 22.1° 1017.0 hPa 0.9 m/s 15.6 mm
08:00 24.6° 1016.5 hPa 0.7 m/s 21.0 mm 24.9° 1016.4 hPa 0.6 m/s 21.0° 1017.2 hPa 1.9 m/s 21.0 mm
14:00 33.5° 1014.8 hPa 0.7 m/s 21.4 mm 34.3° 1014.7 hPa 0.6 m/s 24.2° 1016.5 hPa 2.2 m/s 21.4 mm
20:00 32.0° 1012.6 hPa 1.1 m/s 21.8 mm 32.8° 1012.3 hPa 1.0 m/s 23.3° 1015.5 hPa 2.3 m/s 21.8 mm
 05:44     21:36    Daglengte: 15:52 Zaterdag 29 Jun
02:00 24.8° 1013.1 hPa 2.6 m/s 21.8 mm 25.3° 1012.7 hPa 2.7 m/s 19.3° 1017.0 hPa 1.5 m/s 21.8 mm
08:00 18.8° 1016.0 hPa 1.4 m/s 21.8 mm 18.8° 1016.0 hPa 1.4 m/s 21.8 mm
14:00 28.0° 1014.8 hPa 0.7 m/s 0.2 mm
20:00 26.9° 1014.2 hPa 1.4 m/s 0.4 mm
 05:45     21:35    Daglengte: 15:50 Zondag 30 Jun
02:00 18.6° 1015.3 hPa 0.8 m/s 0.2 mm
08:00 20.4° 1015.5 hPa 0.8 m/s 0.5 mm
14:00 26.9° 1014.7 hPa 1.5 m/s 0.7 mm
20:00 25.1° 1014.6 hPa 1.7 m/s 1.7 mm
 05:45     21:35    Daglengte: 15:50 Maandag 01 Jul
02:00 17.6° 1015.9 hPa 0.5 m/s 1.6 mm
08:00 18.5° 1016.4 hPa 1.0 m/s 1.0 mm
14:00 24.4° 1015.5 hPa 2.6 m/s 0.5 mm
20:00 22.5° 1015.6 hPa 1.8 m/s 2.4 mm
 05:46     21:35    Daglengte: 15:49 Dinsdag 02 Jul
02:00 15.7° 1016.7 hPa 0.7 m/s 1.1 mm
08:00 17.3° 1016.4 hPa 0.9 m/s 0.8 mm
14:00 23.4° 1015.2 hPa 2.1 m/s 1.0 mm
20:00 22.6° 1014.9 hPa 1.7 m/s 0.7 mm
 05:47     21:35    Daglengte: 15:48 Woensdag 03 Jul
02:00 15.1° 1015.7 hPa 0.3 m/s 0.7 mm
08:00 17.3° 1015.6 hPa 0.8 m/s 1.2 mm
14:00 23.0° 1014.7 hPa 1.9 m/s 1.8 mm
20:00 21.4° 1015.4 hPa 1.4 m/s 2.8 mm
 05:47     21:34    Daglengte: 15:47 Donderdag 04 Jul
02:00 14.5° 1016.8 hPa 0.5 m/s 1.1 mm
08:00 16.6° 1017.3 hPa 0.6 m/s 0.7 mm
14:00 22.8° 1016.6 hPa 1.6 m/s 0.6 mm
FMI Hirlam - 7.5 km EWN WRFDA - 12 km DWD ICON - 7 km GFS - 25 km Basiskaart






























































Updatetijd (Europe/Amsterdam) Resolutie Lengte Stap
FMI Hirlam 19:00, 01:00, 07:00, 13:00 7.5 km 49h 1h
EWN WRFDA 16:00, 22:00, 04:00, 10:00 12 km 73h 1h
DWD ICON 17:45, 23:45, 05:45, 11:45 7 km 75h 1h
GFS 14:30, 20:30, 02:30, 08:30 25 km 237h 3h
30+ mm
25-30 mm
20-25 mm
15-20 mm
10-15 mm
6-10 mm
4-6 mm
2-4 mm
1-2 mm
0.5-1 mm
0.2-0.5 mm
0.1-0.2 mm
30+ mm
25-30 mm
20-25 mm
15-20 mm
10-15 mm
6-10 mm
4-6 mm
2-4 mm
1-2 mm
0.5-1 mm
0.2-0.5 mm
0.1-0.2 mm
Sneeuwval
Natte sneeuw
Hagel
Vorst
30+ mm
25-30 mm
20-25 mm
15-20 mm
10-15 mm
6-10 mm
4-6 mm
2-4 mm
1-2 mm
0.5-1 mm
0.2-0.5 mm
0.1-0.2 mm
Sneeuwval
Natte sneeuw
Hagel
Vorst
Onweer
50 mm
40 mm
30 mm
26 mm
22 mm
18 mm
14 mm
10 mm
9 mm
8 mm
7 mm
6 mm
5 mm
4.5 mm
4 mm
3.5 mm
3 mm
2.5 mm
2 mm
1.5 mm
1 mm
0.8 mm
0.6 mm
0.4 mm
0.2 mm
0.05 mm
35°
30°
25°
20°
15°
10°
-5°
-10°
-15°
-20°
-25°
-30°
-35°
33> m/s
29 m/s
25 m/s
21 m/s
17 m/s
14 m/s
11 m/s
8 m/s
5 m/s
3 m/s
0 m/s
2600 J/kg
2400 J/kg
2200 J/kg
2000 J/kg
1800 J/kg
1600 J/kg
1400 J/kg
1200 J/kg
1000 J/kg
800 J/kg
600 J/kg
400 J/kg
200 J/kg
70 dBZ
65 dBZ
60 dBZ
55 dBZ
50 dBZ
45 dBZ
40 dBZ
35 dBZ
30 dBZ
25 dBZ
20 dBZ
15 dBZ
10 dBZ
5 dBZ
-1 K
-2 K
-3 K
-4 K
-5 K
-6 K
-7 K
-8 K
-9 K
950 m²/s²
900 m²/s²
850 m²/s²
800 m²/s²
750 m²/s²
700 m²/s²
650 m²/s²
600 m²/s²
550 m²/s²
500 m²/s²
450 m²/s²
400 m²/s²
350 m²/s²
300 m²/s²
250 m²/s²
200 m²/s²
150 m²/s²
100 m²/s²
46 m/s
44 m/s
42 m/s
40 m/s
38 m/s
36 m/s
34 m/s
32 m/s
30 m/s
28 m/s
26 m/s
24 m/s
22 m/s
20 m/s
16 m/s
12 m/s
8 m/s
4 m/s
30 m/s
28 m/s
26 m/s
24 m/s
22 m/s
20 m/s
18 m/s
16 m/s
14 m/s
12 m/s
10 m/s
8 m/s
6 m/s
4 m/s
2 m/s
3.0
2.8
2.6
2.4
2.2
2.0
1.8
1.6
1.4
1.2
1.0
0.8
0.6
0.4
0.2
15
14
13
12
11
10
9
8
7
6
5
4
3
2
1
90%
80%
70%
60%
50%
40%
30%
20%
10%
42
40
38
36
34
32